| time (UTC) | temp F | wind direction | speed MPH | gust MPH | rain 1hr in | rain 24hr in | rain mn in | humidity % | barometer mb |
| 20260504015513 | 44 | 0 | 0.0 | 0.0 | 0.00 | 0.00 | 0.00 | 64 | 1011.3 |
| 20260504015014 | 44 | 0 | 0.0 | 0.0 | 0.00 | 0.00 | 0.00 | 65 | 1011.4 |
| 20260504014536 | 44 | 0 | 0.0 | 0.0 | 0.00 | 0.00 | 0.00 | 65 | 1011.4 |
| 20260504014013 | 44 | 0 | 0.0 | 0.0 | 0.00 | 0.00 | 0.00 | 65 | 1011.3 |
| 20260504013515 | 44 | 0 | 0.0 | 0.0 | 0.00 | 0.00 | 0.00 | 65 | 1011.3 |
| 20260504013031 | 44 | 0 | 0.0 | 0.0 | 0.00 | 0.00 | 0.00 | 65 | 1011.2 |
| 20260504012513 | 44 | 0 | 0.0 | 0.0 | 0.00 | 0.00 | 0.00 | 65 | 1011.2 |
| 20260504012013 | 44 | 0 | 0.0 | 0.0 | 0.00 | 0.00 | 0.00 | 65 | 1011.1 |
| 20260504011529 | 44 | 0 | 0.0 | 0.0 | 0.00 | 0.00 | 0.00 | 64 | 1011.2 |
| 20260504011012 | 45 | 0 | 0.0 | 0.0 | 0.00 | 0.00 | 0.00 | 63 | 1011.1 |
| 20260504010516 | 45 | 0 | 0.0 | 0.0 | 0.00 | 0.00 | 0.00 | 63 | 1011.0 |
| 20260504010030 | 45 | 0 | 0.0 | 0.0 | 0.00 | 0.00 | 0.00 | 63 | 1011.0 |
| 20260504005514 | 45 | 0 | 0.0 | 0.0 | 0.00 | 0.00 | 0.00 | 63 | 1011.0 |
| 20260504005011 | 45 | 0 | 0.0 | 0.0 | 0.00 | 0.00 | 0.00 | 63 | 1010.8 |
| 20260504004534 | 45 | 0 | 0.0 | 0.0 | 0.00 | 0.00 | 0.00 | 63 | 1011.0 |
| 20260504004013 | 45 | 0 | 0.0 | 0.0 | 0.00 | 0.00 | 0.00 | 63 | 1010.9 |
| 20260504003514 | 46 | 0 | 0.0 | 0.0 | 0.00 | 0.00 | 0.00 | 62 | 1010.9 |
| 20260504003032 | 46 | 0 | 0.0 | 0.0 | 0.00 | 0.00 | 0.00 | 62 | 1010.9 |
| 20260504002512 | 46 | 0 | 0.0 | 0.0 | 0.00 | 0.00 | 0.00 | 61 | 1010.9 |
| 20260504002014 | 46 | 0 | 0.0 | 0.0 | 0.00 | 0.00 | 0.00 | 61 | 1010.8 |
| 20260504001535 | 47 | 0 | 0.0 | 0.0 | 0.00 | 0.00 | 0.00 | 59 | 1010.7 |
| 20260504001013 | 48 | 0 | 0.0 | 0.0 | 0.00 | 0.00 | 0.00 | 59 | 1010.7 |
| 20260504000512 | 49 | 0 | 0.0 | 1.0 | 0.00 | 0.00 | 0.00 | 57 | 1010.7 |
| 20260504000029 | 50 | 0 | 0.0 | 3.0 | 0.00 | 0.00 | 0.00 | 55 | 1010.7 |
| 20260503235516 | 51 | 0 | 0.0 | 3.0 | 0.00 | 0.00 | 0.00 | 52 | 1010.7 |
| 20260503235013 | 52 | 0 | 0.0 | 1.0 | 0.00 | 0.00 | 0.00 | 53 | 1010.6 |
| 20260503234530 | 52 | 0 | 0.0 | 3.0 | 0.00 | 0.00 | 0.00 | 51 | 1010.6 |
| 20260503234012 | 52 | 0 | 0.0 | 3.0 | 0.00 | 0.00 | 0.00 | 53 | 1010.7 |
| 20260503233513 | 52 | 261 | 1.0 | 4.0 | 0.00 | 0.00 | 0.00 | 53 | 1010.6 |
| 20260503233030 | 52 | 0 | 1.0 | 4.0 | 0.00 | 0.00 | 0.00 | 48 | 1010.6 |
| 20260503232515 | 53 | 304 | 1.0 | 5.0 | 0.00 | 0.00 | 0.00 | 48 | 1010.6 |
| 20260503232015 | 53 | 298 | 2.0 | 9.0 | 0.00 | 0.00 | 0.00 | 47 | 1010.5 |
| 20260503231532 | 53 | 288 | 2.0 | 11.0 | 0.00 | 0.00 | 0.00 | 48 | 1010.6 |
| 20260503231011 | 53 | 284 | 6.0 | 11.0 | 0.00 | 0.00 | 0.00 | 46 | 1010.6 |
| 20260503230514 | 53 | 290 | 3.0 | 10.0 | 0.00 | 0.00 | 0.00 | 46 | 1010.6 |
| 20260503230032 | 53 | 278 | 3.0 | 10.0 | 0.00 | 0.00 | 0.00 | 46 | 1010.6 |
| 20260503225513 | 54 | 316 | 4.0 | 14.0 | 0.00 | 0.00 | 0.00 | 45 | 1010.5 |
| 20260503225013 | 54 | 300 | 9.0 | 14.0 | 0.00 | 0.00 | 0.00 | 45 | 1010.5 |
| 20260503224529 | 54 | 264 | 4.0 | 14.0 | 0.00 | 0.00 | 0.00 | 44 | 1010.4 |
| 20260503224013 | 54 | 285 | 6.0 | 12.0 | 0.00 | 0.00 | 0.00 | 46 | 1010.5 |
| 20260503223513 | 54 | 325 | 6.0 | 11.0 | 0.00 | 0.00 | 0.00 | 45 | 1010.5 |
| 20260503223031 | 54 | 273 | 5.0 | 10.0 | 0.00 | 0.00 | 0.00 | 45 | 1010.5 |
| 20260503222513 | 54 | 278 | 5.0 | 10.0 | 0.00 | 0.00 | 0.00 | 45 | 1010.6 |
| 20260503222013 | 54 | 319 | 3.0 | 10.0 | 0.00 | 0.00 | 0.00 | 45 | 1010.5 |
| 20260503221533 | 54 | 292 | 4.0 | 13.0 | 0.00 | 0.00 | 0.00 | 45 | 1010.5 |
| 20260503221016 | 54 | 292 | 5.0 | 13.0 | 0.00 | 0.00 | 0.00 | 46 | 1010.6 |
| 20260503220516 | 55 | 290 | 6.0 | 12.0 | 0.00 | 0.00 | 0.00 | 45 | 1010.6 |
| 20260503220029 | 55 | 294 | 5.0 | 12.0 | 0.00 | 0.00 | 0.00 | 46 | 1010.6 |
| 20260503215514 | 55 | 334 | 6.0 | 19.0 | 0.00 | 0.00 | 0.00 | 44 | 1010.5 |
| 20260503215010 | 55 | 282 | 8.0 | 19.0 | 0.00 | 0.00 | 0.00 | 43 | 1010.4 |
| 20260503214540 | 56 | 294 | 8.0 | 19.0 | 0.00 | 0.00 | 0.00 | 44 | 1010.4 |
| 20260503214013 | 55 | 236 | 8.0 | 15.0 | 0.00 | 0.00 | 0.00 | 46 | 1010.5 |
| 20260503213512 | 55 | 32 | 7.0 | 13.0 | 0.00 | 0.00 | 0.00 | 46 | 1010.5 |
| 20260503213031 | 54 | 263 | 7.0 | 13.0 | 0.00 | 0.00 | 0.00 | 44 | 1010.5 |
| 20260503212514 | 55 | 293 | 5.0 | 11.0 | 0.00 | 0.00 | 0.00 | 46 | 1010.5 |
| 20260503212014 | 54 | 307 | 5.0 | 12.0 | 0.00 | 0.00 | 0.00 | 46 | 1010.5 |
| 20260503211534 | 54 | 297 | 6.0 | 15.0 | 0.00 | 0.00 | 0.00 | 46 | 1010.6 |
| 20260503211013 | 54 | 355 | 7.0 | 15.0 | 0.00 | 0.00 | 0.00 | 47 | 1010.6 |
| 20260503210514 | 53 | 273 | 5.0 | 20.0 | 0.00 | 0.00 | 0.00 | 46 | 1010.6 |
| 20260503210033 | 53 | 308 | 8.0 | 20.0 | 0.00 | 0.00 | 0.00 | 44 | 1010.6 |
| 20260503205513 | 54 | 261 | 9.0 | 16.0 | 0.00 | 0.00 | 0.00 | 44 | 1010.4 |
| 20260503205013 | 54 | 269 | 8.0 | 16.0 | 0.00 | 0.00 | 0.00 | 43 | 1010.4 |
| 20260503204534 | 54 | 248 | 9.0 | 15.0 | 0.00 | 0.00 | 0.00 | 42 | 1010.4 |
| 20260503204014 | 54 | 308 | 6.0 | 18.0 | 0.00 | 0.00 | 0.00 | 43 | 1010.3 |
| 20260503203510 | 55 | 252 | 7.0 | 18.0 | 0.00 | 0.00 | 0.00 | 42 | 1010.3 |
| 20260503203036 | 55 | 312 | 7.0 | 16.0 | 0.00 | 0.00 | 0.00 | 41 | 1010.3 |
| 20260503202514 | 55 | 9 | 7.0 | 20.0 | 0.00 | 0.00 | 0.00 | 43 | 1010.3 |
| 20260503202015 | 54 | 325 | 9.0 | 20.0 | 0.00 | 0.00 | 0.00 | 41 | 1010.3 |
| 20260503201532 | 54 | 325 | 8.0 | 15.0 | 0.00 | 0.00 | 0.00 | 43 | 1010.3 |
| 20260503201016 | 55 | 325 | 8.0 | 20.0 | 0.00 | 0.00 | 0.00 | 40 | 1010.3 |
| 20260503200513 | 55 | 256 | 11.0 | 20.0 | 0.00 | 0.00 | 0.00 | 39 | 1010.3 |
| 20260503200037 | 56 | 260 | 4.0 | 15.0 | 0.00 | 0.00 | 0.00 | 40 | 1010.3 |
| 20260503195510 | 55 | 329 | 8.0 | 18.0 | 0.00 | 0.00 | 0.00 | 41 | 1010.3 |
| 20260503195013 | 55 | 292 | 9.0 | 18.0 | 0.00 | 0.00 | 0.00 | 40 | 1010.4 |
| 20260503194532 | 54 | 276 | 9.0 | 14.0 | 0.00 | 0.00 | 0.00 | 40 | 1010.5 |
| 20260503194013 | 54 | 279 | 7.0 | 14.0 | 0.00 | 0.00 | 0.00 | 42 | 1010.4 |
| 20260503193513 | 53 | 23 | 7.0 | 13.0 | 0.00 | 0.00 | 0.00 | 40 | 1010.5 |
| 20260503193036 | 53 | 324 | 7.0 | 13.0 | 0.00 | 0.00 | 0.00 | 42 | 1010.7 |
| 20260503192512 | 53 | 339 | 7.0 | 12.0 | 0.00 | 0.00 | 0.00 | 40 | 1010.8 |
| 20260503192011 | 54 | 299 | 5.0 | 15.0 | 0.00 | 0.00 | 0.00 | 41 | 1010.9 |
| 20260503191531 | 53 | 289 | 7.0 | 15.0 | 0.00 | 0.00 | 0.00 | 39 | 1010.7 |
| 20260503191013 | 53 | 275 | 8.0 | 15.0 | 0.00 | 0.00 | 0.00 | 39 | 1010.9 |
| 20260503190513 | 54 | 329 | 6.0 | 20.0 | 0.00 | 0.00 | 0.00 | 42 | 1010.9 |
| 20260503190032 | 54 | 294 | 10.0 | 20.0 | 0.00 | 0.00 | 0.00 | 39 | 1011.0 |
| 20260503185513 | 54 | 317 | 7.0 | 16.0 | 0.00 | 0.00 | 0.00 | 47 | 1011.1 |
| 20260503185015 | 53 | 259 | 6.0 | 15.0 | 0.00 | 0.00 | 0.00 | 39 | 1011.1 |
| 20260503184540 | 53 | 297 | 7.0 | 20.0 | 0.00 | 0.00 | 0.00 | 42 | 1011.3 |
| 20260503184013 | 52 | 265 | 11.0 | 20.0 | 0.00 | 0.00 | 0.00 | 40 | 1011.4 |
| 20260503183510 | 52 | 329 | 9.0 | 17.0 | 0.00 | 0.00 | 0.00 | 43 | 1011.4 |
| 20260503183035 | 52 | 305 | 9.0 | 17.0 | 0.00 | 0.00 | 0.00 | 44 | 1011.5 |
| 20260503182515 | 52 | 24 | 9.0 | 15.0 | 0.00 | 0.00 | 0.00 | 47 | 1011.4 |
| 20260503182015 | 51 | 294 | 4.0 | 15.0 | 0.00 | 0.00 | 0.00 | 44 | 1011.6 |
| 20260503181530 | 50 | 5 | 7.0 | 16.0 | 0.00 | 0.00 | 0.00 | 47 | 1011.7 |
| 20260503181011 | 50 | 288 | 8.0 | 16.0 | 0.00 | 0.00 | 0.00 | 44 | 1011.7 |
| 20260503180510 | 50 | 346 | 8.0 | 15.0 | 0.00 | 0.00 | 0.00 | 47 | 1011.6 |
| 20260503180044 | 49 | 302 | 6.0 | 16.0 | 0.00 | 0.00 | 0.00 | 48 | 1011.8 |
| 20260503175513 | 49 | 302 | 7.0 | 17.0 | 0.00 | 0.00 | 0.00 | 45 | 1011.9 |
| 20260503175012 | 49 | 315 | 5.0 | 17.0 | 0.00 | 0.00 | 0.00 | 47 | 1011.9 |
| 20260503174542 | 49 | 306 | 10.0 | 17.0 | 0.00 | 0.00 | 0.00 | 46 | 1012.0 |
| 20260503174013 | 49 | 332 | 7.0 | 17.0 | 0.00 | 0.00 | 0.00 | 45 | 1012.1 |
| 20260503173513 | 49 | 277 | 10.0 | 17.0 | 0.00 | 0.00 | 0.00 | 44 | 1012.1 |
| 20260503173040 | 49 | 258 | 8.0 | 17.0 | 0.00 | 0.00 | 0.00 | 44 | 1012.1 |
| 20260503172512 | 49 | 273 | 6.0 | 17.0 | 0.00 | 0.00 | 0.00 | 44 | 1012.1 |
| 20260503172013 | 50 | 265 | 7.0 | 16.0 | 0.00 | 0.00 | 0.00 | 45 | 1012.1 |
| 20260503171534 | 49 | 23 | 6.0 | 12.0 | 0.00 | 0.00 | 0.00 | 50 | 1012.1 |
| 20260503171013 | 49 | 309 | 5.0 | 12.0 | 0.00 | 0.00 | 0.00 | 46 | 1012.2 |
| 20260503170513 | 49 | 316 | 6.0 | 12.0 | 0.00 | 0.00 | 0.00 | 44 | 1012.2 |
| 20260503151013 | 47 | 331 | 4.0 | 15.0 | 0.00 | 0.00 | 0.00 | 50 | 1012.9 |
| 20260503150517 | 47 | 344 | 7.0 | 18.0 | 0.00 | 0.00 | 0.00 | 51 | 1012.8 |
| 20260503131010 | 43 | 300 | 5.0 | 15.0 | 0.00 | 0.00 | 0.00 | 65 | 1013.3 |
| 20260503130513 | 42 | 5 | 5.0 | 13.0 | 0.00 | 0.00 | 0.00 | 68 | 1013.3 |
| 20260503110511 | 36 | 284 | 2.0 | 6.0 | 0.00 | 0.00 | 0.00 | 81 | 1012.8 |
| 20260503090512 | 35 | 298 | 2.0 | 7.0 | 0.00 | 0.00 | 0.00 | 82 | 1012.0 |
| 20260503081538 | 35 | 294 | 3.0 | 5.0 | 0.00 | 0.00 | 0.00 | 83 | 1011.9 |
| 20260503081010 | 35 | 294 | 2.0 | 4.0 | 0.00 | 0.00 | 0.00 | 83 | 1011.9 |
| 20260503080513 | 35 | 291 | 1.0 | 4.0 | 0.00 | 0.00 | 0.00 | 83 | 1011.9 |
| 20260503072516 | 35 | 5 | 1.0 | 3.0 | 0.00 | 0.01 | 0.00 | 81 | 1011.9 |
| 20260503072013 | 35 | 5 | 1.0 | 2.0 | 0.00 | 0.01 | 0.00 | 81 | 1011.9 |
| 20260503071528 | 35 | 5 | 1.0 | 2.0 | 0.00 | 0.01 | 0.00 | 81 | 1011.9 |
| 20260503071011 | 35 | 5 | 1.0 | 3.0 | 0.00 | 0.01 | 0.00 | 81 | 1011.9 |
| 20260503070511 | 35 | 5 | 1.0 | 3.0 | 0.00 | 0.01 | 0.00 | 81 | 1012.0 |
| 20260503055011 | 36 | 360 | 1.0 | 3.0 | 0.00 | 0.01 | 0.00 | 78 | 1012.4 |
| 20260503054531 | 36 | 360 | 2.0 | 4.0 | 0.00 | 0.01 | 0.00 | 77 | 1012.4 |
| 20260503054010 | 36 | 360 | 2.0 | 4.0 | 0.00 | 0.01 | 0.00 | 77 | 1012.5 |
| 20260503053513 | 36 | 9 | 2.0 | 4.0 | 0.00 | 0.01 | 0.00 | 76 | 1012.5 |
| 20260503053028 | 36 | 346 | 2.0 | 3.0 | 0.00 | 0.01 | 0.00 | 76 | 1012.5 |
| 20260503052512 | 37 | 348 | 2.0 | 4.0 | 0.00 | 0.01 | 0.00 | 75 | 1012.6 |
| 20260503052009 | 37 | 348 | 2.0 | 4.0 | 0.00 | 0.01 | 0.00 | 75 | 1012.6 |
| 20260503051534 | 37 | 352 | 1.0 | 4.0 | 0.00 | 0.01 | 0.00 | 74 | 1012.6 |
| 20260503051012 | 38 | 352 | 2.0 | 4.0 | 0.00 | 0.01 | 0.00 | 74 | 1012.7 |
| 20260503050512 | 38 | 360 | 1.0 | 8.0 | 0.00 | 0.01 | 0.00 | 74 | 1012.7 |
| 20260503050030 | 38 | 5 | 2.0 | 8.0 | 0.00 | 0.01 | 0.00 | 74 | 1012.8 |
| 20260503045514 | 38 | 26 | 3.0 | 6.0 | 0.00 | 0.01 | 0.00 | 74 | 1012.7 |
| 20260503045013 | 38 | 315 | 2.0 | 5.0 | 0.00 | 0.01 | 0.00 | 73 | 1012.7 |
| 20260503044532 | 38 | 313 | 2.0 | 4.0 | 0.00 | 0.01 | 0.00 | 73 | 1012.8 |
| 20260503044013 | 39 | 312 | 2.0 | 4.0 | 0.00 | 0.01 | 0.00 | 73 | 1012.8 |
| 20260503043510 | 39 | 308 | 2.0 | 4.0 | 0.00 | 0.01 | 0.00 | 73 | 1012.8 |
| 20260503043029 | 39 | 341 | 2.0 | 3.0 | 0.00 | 0.01 | 0.00 | 73 | 1012.7 |
| 20260503042510 | 39 | 341 | 1.0 | 5.0 | 0.00 | 0.01 | 0.00 | 72 | 1012.8 |
| 20260503042012 | 39 | 340 | 3.0 | 5.0 | 0.00 | 0.01 | 0.00 | 71 | 1012.9 |
| 20260503041527 | 40 | 333 | 3.0 | 8.0 | 0.00 | 0.01 | 0.00 | 71 | 1012.9 |
| 20260503041014 | 40 | 305 | 3.0 | 8.0 | 0.00 | 0.01 | 0.00 | 70 | 1012.8 |
| 20260503040511 | 40 | 5 | 2.0 | 6.0 | 0.00 | 0.01 | 0.00 | 70 | 1012.9 |
| 20260503040028 | 40 | 325 | 3.0 | 6.0 | 0.00 | 0.01 | 0.00 | 70 | 1012.9 |
| 20260503035512 | 40 | 347 | 3.0 | 10.0 | 0.00 | 0.03 | 0.01 | 70 | 1012.9 |
| 20260503035012 | 40 | 350 | 2.0 | 10.0 | 0.00 | 0.03 | 0.01 | 69 | 1012.9 |
| 20260503034529 | 40 | 335 | 2.0 | 5.0 | 0.00 | 0.03 | 0.01 | 69 | 1012.8 |
| 20260503034011 | 40 | 332 | 3.0 | 6.0 | 0.00 | 0.03 | 0.01 | 69 | 1012.8 |
| 20260503033516 | 41 | 5 | 2.0 | 10.0 | 0.00 | 0.03 | 0.01 | 69 | 1012.8 |
| 20260503033036 | 41 | 5 | 3.0 | 10.0 | 0.00 | 0.03 | 0.01 | 68 | 1012.8 |
| 20260503032512 | 41 | 292 | 4.0 | 8.0 | 0.00 | 0.03 | 0.01 | 68 | 1012.9 |
| 20260503032010 | 41 | 355 | 3.0 | 8.0 | 0.00 | 0.03 | 0.01 | 68 | 1012.9 |
| 20260503031532 | 41 | 332 | 3.0 | 5.0 | 0.00 | 0.03 | 0.01 | 69 | 1012.9 |
| 20260503031011 | 41 | 9 | 3.0 | 5.0 | 0.00 | 0.03 | 0.01 | 68 | 1012.9 |
| 20260503030511 | 41 | 342 | 1.0 | 6.0 | 0.00 | 0.03 | 0.01 | 68 | 1012.9 |
| 20260503030048 | 41 | 338 | 2.0 | 6.0 | 0.00 | 0.03 | 0.01 | 68 | 1012.9 |
| 20260503025512 | 41 | 330 | 1.0 | 4.0 | 0.00 | 0.04 | 0.01 | 68 | 1012.9 |
| 20260503025012 | 41 | 329 | 2.0 | 4.0 | 0.00 | 0.04 | 0.01 | 68 | 1012.9 |
| 20260503024533 | 41 | 329 | 1.0 | 6.0 | 0.00 | 0.04 | 0.01 | 68 | 1013.1 |
| 20260503024010 | 41 | 329 | 2.0 | 6.0 | 0.00 | 0.04 | 0.01 | 66 | 1013.0 |
| 20260503023511 | 41 | 351 | 3.0 | 6.0 | 0.00 | 0.04 | 0.01 | 66 | 1013.0 |
| 20260503023033 | 41 | 348 | 2.0 | 4.0 | 0.00 | 0.04 | 0.01 | 67 | 1013.1 |
| 20260503022511 | 41 | 347 | 2.0 | 4.0 | 0.00 | 0.04 | 0.01 | 66 | 1013.0 |
| 20260503022012 | 41 | 327 | 2.0 | 5.0 | 0.00 | 0.04 | 0.01 | 66 | 1013.0 |
| 20260503021531 | 42 | 331 | 3.0 | 5.0 | 0.00 | 0.04 | 0.01 | 66 | 1013.0 |
| 20260503021012 | 42 | 19 | 3.0 | 5.0 | 0.00 | 0.04 | 0.01 | 67 | 1013.0 |
| 20260503020512 | 42 | 352 | 2.0 | 6.0 | 0.00 | 0.04 | 0.01 | 67 | 1013.0 |
| 20260503020028 | 42 | 340 | 1.0 | 6.0 | 0.00 | 0.04 | 0.01 | 66 | 1013.0 |